Location: Unspecified
(0.0000°N, 0.0000°E)
Time: 23:51:06
(UTC+00:00)

Explorer 11/Cluster Stage 4 - All Passes

Search period start: 28 March 2015 00:00
Search period end: 07 April 2015 00:00
Orbit: 468 x 1274 km, 28.8° (Epoch: 27 March)

Date Brightness Start Highest point End Pass type
(mag) Time Alt. Az. Time Alt. Az. Time Alt. Az.
28 Mar - 06:17:38 10° NNW 06:22:28 17° NNE 06:27:23 10° ENE daylight
28 Mar - 08:05:13 10° NW 08:12:55 45° NNE 08:19:42 10° E daylight
28 Mar - 09:54:57 10° WNW 10:02:26 57° SSW 10:08:33 10° SE daylight
28 Mar - 11:48:18 10° WSW 11:51:33 14° SSW 11:54:16 10° S daylight
28 Mar - 19:11:27 10° SSE 19:12:19 11° SSE 19:13:21 10° SE visible
28 Mar - 20:56:41 10° SW 21:00:42 79° SSE 21:05:38 10° ENE night (unlit)
28 Mar - 22:46:02 10° WNW 22:49:44 21° NNW 22:53:58 10° NNE night (unlit)
29 Mar - 06:08:43 10° NNW 06:14:17 20° NNE 06:19:57 10° ENE daylight
29 Mar - 07:56:34 10° NW 08:04:36 55° NNE 08:11:43 10° ESE daylight
29 Mar - 09:46:39 10° WNW 09:54:06 47° SSW 10:00:16 10° SE daylight
29 Mar - 11:41:02 10° SW 11:43:24 12° SSW 11:45:20 10° S daylight
29 Mar - 19:02:15 10° S 19:04:14 14° SSE 19:06:24 10° ESE visible
29 Mar - 20:48:40 10° WSW 20:52:34 75° NNW 20:57:18 10° NE visible
29 Mar - 22:38:45 10° WNW 22:41:43 16° NNW 22:44:55 10° NNE night (unlit)
30 Mar - 05:59:52 10° NNW 06:06:04 23° NNE 06:12:21 10° ENE daylight
30 Mar - 07:47:59 10° NW 07:56:15 66° NNE 08:03:38 10° ESE daylight
30 Mar - 09:38:26 10° W 09:45:44 40° SSW 09:51:55 10° SE daylight
30 Mar - 18:53:33 10° SSW 18:56:08 18° SSE 18:58:55 10° ESE visible
30 Mar - 20:40:43 10° WSW 20:44:28 52° NNW 20:48:53 10° NE visible
30 Mar - 22:31:57 10° NW 22:33:43 12° NNW 22:35:26 10° N night (unlit)
31 Mar - 05:51:07 10° NNW 05:57:47 28° NNE 06:04:35 10° E daylight
31 Mar - 07:39:27 10° NW 07:47:50 78° NNE 07:55:28 10° ESE daylight
31 Mar - 09:30:17 10° W 09:37:23 34° SSW 09:43:29 10° SSE daylight
31 Mar - 18:45:01 10° SSW 18:48:02 25° SSE 18:51:12 10° E visible
31 Mar - 20:32:52 10° W 20:36:23 36° NNW 20:40:23 10° NE visible
01 Apr - 03:57:07 10° N 03:58:54 11° NNE 04:01:06 10° NE visible
01 Apr - 05:42:25 10° NNW 05:49:27 32° NNE 05:56:42 10° E visible
01 Apr - 07:30:59 10° WNW 07:39:23 88° SSW 07:47:11 10° ESE daylight
01 Apr - 09:22:13 10° W 09:29:02 29° SSW 09:34:59 10° SSE daylight
01 Apr - 18:36:35 10° SW 18:39:55 34° SSE 18:43:20 10° E visible
01 Apr - 20:25:07 10° W 20:28:18 26° NNW 20:31:48 10° NNE visible
02 Apr - 03:47:47 10° N 03:50:45 13° NNE 03:54:11 10° NE visible
02 Apr - 05:33:46 10° NW 05:41:05 38° NNE 05:48:40 10° E visible
02 Apr - 07:22:34 10° WNW 07:30:56 76° SSW 07:38:50 10° SE daylight
02 Apr - 09:14:15 10° W 09:20:42 25° SSW 09:26:24 10° SSE daylight
02 Apr - 18:28:14 10° SW 18:31:48 50° SSE 18:35:21 10° ENE visible
02 Apr - 20:17:33 10° WNW 20:20:14 19° NNW 20:23:03 10° NNE visible
03 Apr - 03:38:48 10° N 03:42:33 15° NNE 03:46:51 10° ENE visible
03 Apr - 05:25:12 10° NW 05:32:40 45° NNE 05:40:34 10° E visible
03 Apr - 07:14:13 10° WNW 07:22:28 64° SSW 07:30:24 10° SE daylight
03 Apr - 09:06:23 10° WSW 09:12:23 21° SSW 09:17:45 10° SSE daylight
03 Apr - 16:34:03 10° S 16:34:58 11° SSE 16:35:58 10° SE daylight
03 Apr - 18:19:57 10° SW 18:23:40 75° SSE 18:27:17 10° ENE visible
03 Apr - 20:10:15 10° WNW 20:12:10 13° NNW 20:14:04 10° N visible
04 Apr - 03:29:58 10° N 03:34:19 17° NNE 03:39:17 10° ENE visible
04 Apr - 05:16:40 10° NW 05:24:12 53° NNE 05:32:20 10° ESE visible
04 Apr - 07:05:57 10° WNW 07:13:59 54° SSW 07:21:53 10° SE daylight
04 Apr - 08:58:39 10° WSW 09:04:05 18° SSW 09:09:00 10° SSE daylight
04 Apr - 16:24:30 10° SSW 16:26:55 15° SSE 16:29:15 10° ESE daylight
04 Apr - 18:11:45 10° WSW 18:15:32 74° NNW 18:19:07 10° NE daylight
05 Apr - 03:21:13 10° NNW 03:26:01 20° NNE 03:31:33 10° ENE visible
05 Apr - 05:08:12 10° NW 05:15:44 63° NNE 05:24:01 10° ESE visible
05 Apr - 06:57:46 10° W 07:05:32 46° SSW 07:13:18 10° SE daylight
05 Apr - 08:51:02 10° WSW 08:55:50 16° SSW 09:00:09 10° S daylight
05 Apr - 16:15:32 10° SSW 16:18:50 21° SSE 16:21:51 10° ESE daylight
05 Apr - 18:03:37 10° WSW 18:07:22 50° NNW 18:10:52 10° NE daylight
06 Apr - 03:12:33 10° NNW 03:17:41 23° NNE 03:23:40 10° E visible
06 Apr - 04:59:47 10° NW 05:07:15 75° NNE 05:15:37 10° ESE visible
06 Apr - 06:49:39 10° W 06:57:06 38° SSW 07:04:38 10° SE daylight
06 Apr - 08:43:37 10° SW 08:47:36 14° SSW 08:51:09 10° S daylight
06 Apr - 16:06:44 10° SSW 16:10:44 28° SSE 16:14:12 10° E daylight
06 Apr - 17:55:32 10° W 17:59:12 35° NNW 18:02:32 10° NE daylight
